STARLINK-3245 (50170 NORAD) Tracking and Keplerian Element Data

This shows tracking and keplerian element data for the satellite.

Feedback or suggestion? Click here.




ElementValue
Catalog50170
NameSTARLINK-3245
Epoch Orbit130
Epoch Day140.58334491
Epoch Year2022
RAAN5.0554
Inclination53.2165
Eccentricity0.0001633
Argument of Perigee49.4865
Mean Anonmoly317.023
Mean Motion15.08834346
Decay Rate0.00021355
L11 50170U 21125Q 22140.58334491 .00021355 00000+0 13560-2 0 9992
L22 50170 53.2165 5.0554 0001633 49.4865 317.0230 15.08834346 1307

Live tracking and technical data element details for STARLINK-3245 (NORAD 50170). STARLINK-3245 can be tracked NOW for your location showing map with azimuth and elevation plus other details from your city location.

Track the satellite on the map from your city or location and see movement details for azimuth, elevation, latitude, longitude, range, height, and movement on the map or in text.







IsCatalogInMostPopularTable: catalog: 50170, numindb: 24
Update: records affected: 1



GetName: 50170 STARLINK-3245

Hit Count: updated at: Mon, 23 May 2022 20:38:39 GMT